Location: Cuzcurrita-R�o Tir�n
(42.5415°N, 2.9642°W)
Time: 21:47:13
(UTC+00:00)

Meteor 1-24 Rocket - Pass Details

Date: 17 January 2021
Orbit: 791 x 927 km, 81.3° (Epoch: 02 March)

Event Time Altitude Azimuth Distance (km) Brightness Sun altitude
Rises 18:06:51 0° 183° (S) 3,345 7.1 -11.1°
Reaches altitude 10° 18:09:15 10° 182° (S) 2,400 6.3 -11.5°
Maximum altitude 18:14:38 76° 98° (E) 830 3.5 -12.4°
Drops below altitude 10° 18:19:57 10° 13° (NNE) 2,369 5.8 -13.4°
Sets 18:22:19 0° 12° (NNE) 3,299 6.5 -13.8°
